This demonstration page uses our WeatherBlox Daily Observations layout. Learn more.

Hourly Observations for October 12, 2020

Temp ( °F °C ) Dew Point ( °F °C ) Humidity (%) Winds ( mph kmh ) Pressure ( in mb ) Visibility ( mi km ) Precip ( " mm )
12:53 am 00:53 Clear with Light Snow 31 -0.6 25 -3.9 79 79 NW 7 11 30.03 1017 9 14.48406 0.001 0.001
1:53 am 01:53 Clear 31 -0.6 26 -3.3 82 82 Calm 30.06 1018 10 16.0934 0.001 0.001
2:53 am 02:53 Clear 28 -2.2 24 -4.4 85 85 N 9 15 30.06 1018 10 16.0934 0 0
3:53 am 03:53 Clear 30 -1.1 25 -3.9 82 82 Calm 30.05 1018 10 16.0934 0 0
4:53 am 04:53 Clear 30 -1.1 26 -3.3 85 85 SSE 8 13 30.05 1018 10 16.0934 0 0
5:53 am 05:53 Clear 28 -2.2 24 -4.4 85 85 NNE 3 6 30.03 1017 10 16.0934 0 0
6:53 am 06:53 Clear 27 -2.8 22 -5.6 81 81 Calm 30.05 1018 10 16.0934 0 0
7:53 am 07:53 Sunny 33 0.6 27 -2.8 78 78 Calm 30.03 1017 10 16.0934 0 0
8:53 am 08:53 Sunny 41 5 29 -1.7 62 62 ESE 6 9 30.01 1016 9 14.48406 0 0
9:53 am 09:53 Sunny 55 12.8 29 -1.7 37 37 VRB 6 9 29.97 1015 10 16.0934 0 0
10:53 am 10:53 Sunny 67 19.4 28 -2.2 23 23 W 22 35 29.91 1013 10 16.0934 0 0
11:53 am 11:53 Sunny 69 20.6 27 -2.8 21 21 W 28 44 29.9 1012 10 16.0934 0 0
12:53 pm 12:53 Sunny 71 21.7 26 -3.3 19 19 W 30 48 29.87 1012 10 16.0934 0.001 0.001
1:53 pm 13:53 Sunny with Light Rain 73 22.8 26 -3.3 17 17 W 28 44 29.84 1010 10 16.0934 0.001 0.001
2:53 pm 14:53 Sunny with Light Rain 74 23.3 26 -3.3 17 17 WNW 24 39 29.82 1010 10 16.0934 0.001 0.001
3:53 pm 15:53 Sunny with Light Rain 70 21.1 25 -3.9 18 18 W 22 35 29.82 1010 10 16.0934 0.001 0.001
4:53 pm 16:53 Sunny 72 22.2 25 -3.9 17 17 W 26 43 29.82 1010 10 16.0934 0.001 0.001
5:53 pm 17:53 Sunny 70 21.1 25 -3.9 18 18 WNW 17 28 29.84 1010 10 16.0934 0 0
6:53 pm 18:53 Clear 67 19.4 25 -3.9 20 20 W 15 24 29.87 1011 10 16.0934 0 0
7:53 pm 19:53 Clear 59 15 25 -3.9 27 27 W 3 6 29.89 1012 10 16.0934 0 0
8:53 pm 20:53 Clear 52 11.1 24 -4.4 34 34 W 5 7 29.92 1013 10 16.0934 0 0
9:53 pm 21:53 Clear 52 11.1 25 -3.9 35 35 NW 6 9 29.93 1014 10 16.0934 0 0
10:53 pm 22:53 Clear 50 10 26 -3.3 39 39 Calm 29.93 1013 10 16.0934 0 0
11:53 pm 23:53 Clear 48 8.9 26 -3.3 42 42 W 7 11 29.94 1014 10 16.0934 0 0

Powered by AerisWeather